Flag for U.S.A. Weather past 2 weeks in Gainesville, Florida, U.S.A.

Now
75 °F

Passing clouds.


Feels Like: 73 °F
Forecast: 70 / 80 °F
Wind: 5 mph from South

Location: Gainesville Regional Airport

Current Time: Sep 16, 2014 at 4:03:53 AM

Latest Report: Sep 16, 2014 at 2:53 AM


Visibility: 10 mi

Pressure: 30.08 "Hg

Humidity: 94%

Dew point: 73 °F

Location of GainesvilleLocation

Historic Weather in Gainesville — Graph

°F

Gainesville temperature yesterday

Maximum temperature yesterday: 88 °F (at 12:53 PM)
Minimum temperature yesterday: 71 °F (at 6:53 AM)
Average temperature yesterday: 77 °F

Past Weeks' High & Low Weather Summary

 TemperatureHumidityPressure
High93 °F (Sep 1, 2:53 PM)100% (Sep 2, 4:53 AM)30.16 "Hg (Sep 2, 4:53 AM)
Low70 °F (Sep 11, 6:53 AM)47% (Sep 1, 2:53 PM)29.93 "Hg (Sep 7, 4:53 PM)
Average78 °F84%30.04 "Hg
* Reported Sep 1 2:53 AM — Sep 16 2:53 AM, Gainesville, Weather by CustomWeather, © 2014

Note: Actual official high and low records may vary slightly from our data, if they occured in-between our weather recording intervals... More about our weather records

Advertising

Gainesville weather history for previous 24 hours

 ConditionsComfort  
Time TempWeatherWind HumidityBarometerVisibility
2:53 AM
Sep 16
75 °FPassing clouds.5 mph94%30.08 "Hg10 mi
1:53 AM75 °FMostly cloudy.No wind94%30.10 "Hg10 mi
12:53 AM74 °FPassing clouds.No wind97%30.12 "Hg10 mi
11:53 PM
Sep 15
75 °FClear.No wind94%30.13 "Hg10 mi
10:53 PM75 °FPassing clouds.No wind96%30.13 "Hg10 mi
9:53 PM75 °FPassing clouds.No wind94%30.13 "Hg10 mi
8:53 PM75 °FPassing clouds.No wind94%30.11 "Hg10 mi
7:53 PM77 °FPartly sunny.No wind88%30.10 "Hg10 mi
6:53 PM80 °FPartly sunny.3 mph79%30.08 "Hg10 mi
5:53 PM80 °FSunny.7 mph79%30.09 "Hg10 mi
4:53 PM77 °FBroken clouds.7 mph94%30.09 "Hg10 mi
3:53 PM75 °FRain. Fog.5 mph94%30.11 "Hg5 mi
2:53 PM81 °FLight rain. Mostly cloudy.7 mph74%30.12 "Hg5 mi
1:53 PM86 °FPassing clouds.7 mph59%30.12 "Hg10 mi
12:53 PM88 °FPartly sunny.3 mph59%30.14 "Hg10 mi
11:53 AM85 °FPartly sunny.9 mph65%30.16 "Hg10 mi
10:53 AM85 °FScattered clouds.7 mph68%30.16 "Hg10 mi
9:53 AM81 °FSunny.No wind79%30.16 "Hg10 mi
8:53 AM76 °FSunny.3 mph91%30.16 "Hg10 mi
7:53 AM73 °FClear.No wind97%30.15 "Hg10 mi
6:53 AM71 °FClear.No wind96%30.14 "Hg10 mi
5:53 AM72 °FClear.No wind97%30.13 "Hg10 mi
4:53 AM73 °FClear.No wind94%30.12 "Hg10 mi
Weather by CustomWeather, © 2014

See weather overviewHow to use our weather pages